Tracking 31027 objects as of 19-Jul-2025
HD Live streaming from Space Station
objects crossing your sky now

SL-14 R/B

Track SL-14 R/B now!
10-day predictions


NORAD ID: 12988
Int'l Code: 1981-117B
Perigee: 602.2 km
Apogee: 627.1 km
Inclination: 82.5 °
Period: 96.8 minutes
Semi major axis: 6985 km
RCS: 4.5053 m2 (large)
Launch date: December 3, 1981
Source: Commonwealth of Independent States (former USSR) (CIS)
Launch site: PLESETSK MISSILE AND SPACE COMPLEX (PKMTR)

Note: This is a ROCKET BODY
Your satellite tracking list
COSMOS 1408 DEB
Track 1 satellite(s)




NASA's NSSDC Master Catalog

Two Line Element Set (TLE):
1 12988U 81117B   25199.45468329  .00000380  00000-0  39602-4 0  9998
2 12988  82.5236 181.0091 0017867 158.2063 201.9918 14.86933614337109
Source of the keplerian elements: AFSPC